Location: Clatteringshaws Loch
(55.0508°N, 4.2860°W)
Time: 21:05:29
(UTC+00:00)

SR - Visible Passes

Search period start: 31 January 2015 00:00
Search period end: 10 February 2015 00:00
Orbit: 582 x 880 km, 66.7° (Epoch: 31 January)

Date Brightness Start Highest point End Pass type
(mag) Time Alt. Az. Time Alt. Az. Time Alt. Az.
31 Jan ? 18:46:01 10° NW 18:49:41 21° N 18:51:13 18° NNE visible
31 Jan ? 20:28:38 10° NW 20:30:42 23° NNW 20:30:42 23° NNW visible
01 Feb ? 17:56:52 10° NW 18:00:32 20° N 18:03:55 10° NE visible
01 Feb ? 19:39:57 10° NW 19:43:24 27° N 19:43:24 27° N visible
01 Feb ? 21:22:08 10° NW 21:22:53 14° NW 21:22:53 14° NW visible
02 Feb ? 18:51:09 10° NW 18:54:58 23° NNE 18:56:07 21° NE visible
02 Feb ? 20:33:28 10° NW 20:35:36 26° NNW 20:35:36 26° NNW visible
03 Feb ? 18:02:12 10° NW 18:05:50 21° N 18:08:52 12° NE visible
03 Feb ? 19:44:48 10° NW 19:48:21 35° N 19:48:21 35° N visible
03 Feb ? 21:27:03 10° NW 21:27:50 15° NW 21:27:50 15° NW visible
04 Feb ? 18:56:06 10° NW 19:00:11 28° NNE 19:01:07 26° NE visible
04 Feb ? 20:38:17 10° NW 20:40:36 29° NW 20:40:36 29° NW visible
05 Feb ? 18:07:19 10° NW 18:11:06 23° NNE 18:13:56 14° ENE visible
05 Feb ? 19:49:37 10° NW 19:53:25 49° N 19:53:25 49° N visible
05 Feb ? 21:32:07 10° WNW 21:32:54 14° WNW 21:32:54 14° WNW visible
06 Feb ? 19:00:57 10° NW 19:05:17 38° NNE 19:06:16 33° ENE visible
06 Feb ? 20:43:11 10° NW 20:45:46 31° WNW 20:45:46 31° WNW visible
07 Feb ? 18:12:16 10° NW 18:16:18 28° NNE 18:19:10 15° ENE visible
07 Feb ? 19:54:26 10° NW 19:58:40 77° NW 19:58:40 77° NW visible
07 Feb ? 21:37:35 10° WNW 21:38:10 12° WNW 21:38:10 12° WNW visible
08 Feb ? 19:05:45 10° NW 19:10:16 56° NE 19:11:39 38° E visible
08 Feb ? 20:48:15 10° WNW 20:51:09 27° W 20:51:09 27° W visible
09 Feb ? 18:17:06 10° NW 18:21:24 37° NNE 18:24:42 14° E visible
09 Feb ? 19:59:19 10° NW 20:03:42 52° SW 20:04:12 49° SSW visible
